When you browse on this site, cookies collect data to enhance your experience and personalize the content and advertising you see.
Visit our Privacy Policy to learn more. By continuing to use the site, you agree to this use of cookies and data.
  • In Sweden
  • List of Countries
  • For 7 days
  • Water Temperature
  • Weather Map
  • Weather Widgets
  • user-avatar
    Login

    Hourly Weather Bry-sur-Marne

    Today, 23 August, Friday

    Time Temperature Precipitation Wind Pressure Humidity
    00:00 +17°C° 0 mm 2 mps 764 mmHg 60%
    01:00 +17°C° 0 mm 2 mps 764 mmHg 61%
    02:00 +16°C° 0 mm 2 mps 763 mmHg 63%
    03:00 +16°C° 0 mm 2 mps 763 mmHg 64%
    04:00 +16°C° 0 mm 2 mps 763 mmHg 64%
    05:00 +16°C° 0 mm 2 mps 763 mmHg 64%
    06:00 +16°C° 0 mm 2 mps 763 mmHg 64%
    07:00 +19°C° 0 mm 2 mps 763 mmHg 58%
    08:00 +21°C° 0 mm 2 mps 763 mmHg 52%
    09:00 +24°C° 0 mm 2 mps 763 mmHg 46%
    10:00 +26°C° 0 mm 2 mps 763 mmHg 42%
    11:00 +27°C° 0 mm 2 mps 762 mmHg 38%
    12:00 +29°C° 0 mm 2 mps 762 mmHg 34%
    13:00 +29°C° 0 mm 2 mps 761 mmHg 33%
    14:00 +30°C° 0 mm 2 mps 761 mmHg 31%
    15:00 +30°C° 0 mm 2 mps 761 mmHg 30%
    16:00 +29°C° 0 mm 3 mps 761 mmHg 34%
    17:00 +28°C° 0 mm 3 mps 760 mmHg 39%
    18:00 +27°C° 0 mm 3 mps 760 mmHg 44%
    19:00 +25°C° 0 mm 2 mps 760 mmHg 48%
    20:00 +24°C° 0 mm 2 mps 760 mmHg 52%
    21:00 +23°C° 0 mm 2 mps 760 mmHg 55%
    22:00 +21°C° 0 mm 2 mps 760 mmHg 58%
    23:00 +21°C° 0 mm 2 mps 760 mmHg 61%

    Tomorrow, 24 August, Saturday

    Time Temperature Precipitation Wind Pressure Humidity
    00:00 +20°C° 0 mm 2 mps 759 mmHg 64%
    01:00 +19°C° 0 mm 2 mps 759 mmHg 66%
    02:00 +19°C° 0 mm 2 mps 759 mmHg 68%
    03:00 +18°C° 0 mm 2 mps 759 mmHg 70%
    04:00 +18°C° 0 mm 2 mps 759 mmHg 71%
    05:00 +18°C° 0 mm 2 mps 759 mmHg 72%
    06:00 +18°C° 0 mm 2 mps 758 mmHg 74%
    07:00 +20°C° 0 mm 2 mps 759 mmHg 67%
    08:00 +23°C° 0 mm 2 mps 759 mmHg 61%
    09:00 +25°C° 0 mm 2 mps 759 mmHg 55%
    10:00 +27°C° 0 mm 2 mps 759 mmHg 49%
    11:00 +29°C° 0 mm 2 mps 758 mmHg 42%
    12:00 +30°C° 0 mm 2 mps 758 mmHg 36%
    13:00 +31°C° 0 mm 2 mps 758 mmHg 33%
    14:00 +31°C° 0 mm 1 mps 757 mmHg 31%
    15:00 +32°C° 0 mm 1 mps 757 mmHg 28%
    16:00 +31°C° 0 mm 1 mps 757 mmHg 31%
    17:00 +30°C° 0 mm 1 mps 757 mmHg 35%
    18:00 +29°C° 0 mm 1 mps 756 mmHg 38%
    19:00 +27°C° 0 mm 2 mps 757 mmHg 41%
    20:00 +26°C° 0 mm 2 mps 757 mmHg 45%
    21:00 +25°C° 0 mm 2 mps 757 mmHg 48%
    22:00 +24°C° 0 mm 1 mps 757 mmHg 50%
    23:00 +24°C° 0 mm 1 mps 757 mmHg 53%

    Day after tomorrow, 25 August, Sunday

    Time Temperature Precipitation Wind Pressure Humidity
    00:00 +23°C° 0 mm 1 mps 757 mmHg 55%
    01:00 +22°C° 0 mm 1 mps 757 mmHg 57%
    02:00 +22°C° 0 mm 1 mps 757 mmHg 58%
    03:00 +19°C° 0 mm 0 mps 757 mmHg 60%
    04:00 +19°C° 0 mm 0 mps 757 mmHg 60%
    05:00 +20°C° 0 mm 0 mps 757 mmHg 60%
    06:00 +20°C° 0 mm 0 mps 757 mmHg 60%
    07:00 +24°C° 0 mm 1 mps 757 mmHg 53%
    08:00 +26°C° 0 mm 1 mps 757 mmHg 47%
    09:00 +28°C° 0 mm 1 mps 758 mmHg 41%
    10:00 +30°C° 0 mm 1 mps 758 mmHg 36%
    11:00 +32°C° 0 mm 1 mps 757 mmHg 31%
    12:00 +32°C° 0 mm 0 mps 757 mmHg 26%
    13:00 +32°C° 0 mm 0 mps 757 mmHg 24%
    14:00 +34°C° 0 mm 1 mps 757 mmHg 22%
    15:00 +35°C° 0 mm 1 mps 757 mmHg 20%
    16:00 +33°C° 0 mm 1 mps 756 mmHg 23%
    17:00 +32°C° 0 mm 1 mps 756 mmHg 26%
    18:00 +31°C° 0 mm 2 mps 756 mmHg 29%
    19:00 +29°C° 0 mm 2 mps 757 mmHg 33%
    20:00 +28°C° 0 mm 2 mps 757 mmHg 36%
    21:00 +26°C° 0 mm 2 mps 757 mmHg 39%
    22:00 +26°C° 0 mm 2 mps 757 mmHg 41%
    23:00 +25°C° 0 mm 2 mps 757 mmHg 43%

    26 August, Monday

    Time Temperature Precipitation Wind Pressure Humidity
    00:00 +24°C° 0 mm 2 mps 757 mmHg 45%
    01:00 +24°C° 0 mm 1 mps 757 mmHg 47%
    02:00 +23°C° 0 mm 1 mps 757 mmHg 48%
    03:00 +23°C° 0 mm 1 mps 757 mmHg 50%
    04:00 +23°C° 0 mm 1 mps 757 mmHg 53%
    05:00 +23°C° 0 mm 1 mps 757 mmHg 55%
    06:00 +22°C° 0 mm 1 mps 757 mmHg 57%
    07:00 +25°C° 0 mm 2 mps 757 mmHg 52%
    08:00 +27°C° 0 mm 2 mps 757 mmHg 47%
    09:00 +29°C° 0 mm 2 mps 757 mmHg 42%
    10:00 +30°C° 0 mm 2 mps 757 mmHg 38%
    11:00 +32°C° 0 mm 2 mps 756 mmHg 34%
    12:00 +34°C° 0 mm 3 mps 756 mmHg 30%
    13:00 +34°C° 0 mm 3 mps 756 mmHg 28%
    14:00 +35°C° 0 mm 3 mps 755 mmHg 27%
    15:00 +35°C° 0 mm 3 mps 755 mmHg 26%
    16:00 +34°C° 0 mm 3 mps 755 mmHg 29%
    17:00 +33°C° 0 mm 3 mps 754 mmHg 33%
    18:00 +30°C° 0 mm 3 mps 754 mmHg 37%
    19:00 +29°C° 0 mm 3 mps 754 mmHg 40%
    20:00 +28°C° 0 mm 3 mps 754 mmHg 43%
    21:00 +27°C° 0 mm 3 mps 755 mmHg 46%
    22:00 +26°C° 0 mm 3 mps 754 mmHg 48%
    23:00 +25°C° 0 mm 3 mps 754 mmHg 50%

    27 August, Tuesday

    Time Temperature Precipitation Wind Pressure Humidity
    00:00 +25°C° 0 mm 2 mps 754 mmHg 52%
    01:00 +24°C° 0 mm 2 mps 754 mmHg 53%
    02:00 +24°C° 0 mm 2 mps 754 mmHg 54%
    03:00 +24°C° 0 mm 2 mps 753 mmHg 55%
    04:00 +24°C° 0 mm 2 mps 754 mmHg 54%
    05:00 +24°C° 0 mm 2 mps 754 mmHg 52%
    06:00 +24°C° 0 mm 2 mps 754 mmHg 51%
    07:00 +25°C° 0 mm 2 mps 754 mmHg 48%
    08:00 +26°C° 0 mm 2 mps 754 mmHg 44%
    09:00 +28°C° 0 mm 2 mps 754 mmHg 41%
    10:00 +29°C° 0 mm 2 mps 754 mmHg 40%
    11:00 +30°C° 0 mm 3 mps 755 mmHg 38%
    12:00 +31°C° 0 mm 3 mps 755 mmHg 37%
    13:00 +30°C° 0 mm 3 mps 755 mmHg 39%
    14:00 +30°C° 0 mm 3 mps 755 mmHg 41%
    15:00 +30°C° 0 mm 3 mps 755 mmHg 43%
    16:00 +27°C° 0.6 mm 3 mps 755 mmHg 54%
    17:00 +25°C° 0.6 mm 4 mps 755 mmHg 65%
    18:00 +22°C° 0.6 mm 4 mps 755 mmHg 76%
    19:00 +21°C° 0.3 mm 3 mps 756 mmHg 76%
    20:00 +20°C° 0.3 mm 3 mps 756 mmHg 75%
    21:00 +20°C° 0.3 mm 2 mps 756 mmHg 75%
    22:00 +19°C° 0.1 mm 2 mps 757 mmHg 77%
    23:00 +19°C° 0.1 mm 3 mps 757 mmHg 79%

    28 August, Wednesday

    Time Temperature Precipitation Wind Pressure Humidity
    00:00 +18°C° 0.1 mm 3 mps 757 mmHg 81%
    01:00 +18°C° 0 mm 3 mps 757 mmHg 82%
    02:00 +18°C° 0 mm 2 mps 757 mmHg 84%
    03:00 +18°C° 0 mm 2 mps 757 mmHg 85%
    04:00 +18°C° 0 mm 2 mps 758 mmHg 85%
    05:00 +18°C° 0 mm 2 mps 758 mmHg 84%
    06:00 +17°C° 0 mm 2 mps 758 mmHg 84%
    07:00 +19°C° 0 mm 2 mps 759 mmHg 76%
    08:00 +20°C° 0 mm 2 mps 759 mmHg 69%
    09:00 +23°C° 0 mm 2 mps 759 mmHg 62%
    10:00 +24°C° 0 mm 3 mps 759 mmHg 53%
    11:00 +25°C° 0 mm 3 mps 759 mmHg 45%
    12:00 +27°C° 0 mm 3 mps 759 mmHg 36%
    13:00 +27°C° 0 mm 3 mps 759 mmHg 34%
    14:00 +28°C° 0 mm 3 mps 759 mmHg 32%
    15:00 +28°C° 0 mm 3 mps 758 mmHg 31%
    16:00 +28°C° 0 mm 2 mps 759 mmHg 34%
    17:00 +27°C° 0 mm 2 mps 759 mmHg 38%
    18:00 +26°C° 0 mm 2 mps 759 mmHg 42%
    19:00 +25°C° 0 mm 2 mps 759 mmHg 46%
    20:00 +23°C° 0 mm 2 mps 759 mmHg 51%
    21:00 +21°C° 0 mm 2 mps 760 mmHg 55%
    22:00 +20°C° 0 mm 2 mps 760 mmHg 61%
    23:00 +20°C° 0 mm 2 mps 760 mmHg 66%
    Show more